[[{"header":{"parameterUnit":"m.s-1","parameterCategory":1,"la1":30.2991,"la2":30.254,"lo1":-89.0895,"lo2":-89.0444,"dy":0.0017,"dx":0.0017,"nx":28,"ny":28,"refTime":"2023-07-19T21:00:00:Z","depth":0,"parameterNumber":2,"parameterNumberName":"U-component_of_WINDS"},"data":[0,0,0,0,0,0,0,0,0,0,0,0,0,0,0,0,0,0,0,0,0,0,0,0,0,0,0,0,0,0,0,0,0,0,0,0,0,0,0,0,0,0,0,0,0,0,0,0,0,0,0,0,0,0,0,0,0,0,2.0202,2.0202,0,2.0225,2.0226,2.0226,2.021,2.0209,2.0209,2.0208,2.0234,2.0236,2.0237,0,0,0,0,0,0,0,0,0,0,0,0,0,2.0146,2.0147,2.0202,2.0202,2.0202,2.0225,2.0226,2.0226,2.021,2.0209,2.0209,2.0208,2.0234,2.0236,2.0237,0,0,0,0,0,0,0,0,0,0,0,0,0,2.017,2.0148,2.0202,2.0197,2.0197,2.0225,2.0226,2.0226,2.021,2.0209,2.0208,2.0207,2.0233,2.0235,2.0237,2.0272,0,0,2.0244,2.0245,0,0,0,0,0,0,0,0,2.0169,2.0172,2.0198,2.0198,2.0198,2.0214,2.0216,2.0241,2.0211,2.0206,2.0208,2.0207,2.0229,2.0231,2.0238,2.0273,2.0274,2.0244,2.0245,2.0246,2.0247,0,0,0,0,0,0,0,2.0167,2.0171,2.0211,2.0198,2.0198,2.0195,2.0197,2.022,2.0223,2.0206,2.0205,2.0208,2.0228,2.0236,2.0238,2.0275,2.0244,2.0246,2.0247,2.0248,2.034,2.0341,0,0,0,0,0,0,2.0166,2.017,2.021,2.0212,2.018,2.0197,2.0199,2.021,2.0223,2.0223,2.0209,2.0207,2.0233,2.0236,2.0239,2.0281,2.0246,2.0248,2.0249,2.0339,2.0341,2.0342,0,0,0,0,0,0,2.0164,2.0169,2.0209,2.0191,2.0195,2.0199,2.0211,2.0211,2.0218,2.0225,2.0225,2.0216,2.0232,2.0236,2.0264,2.0282,2.0249,2.0251,2.0338,2.034,2.0341,2.0364,0,0,0,0,0,0,2.0163,2.0169,2.0181,2.0191,2.0196,2.0233,2.0212,2.0212,2.0221,2.0219,2.0231,2.0232,2.0232,2.0261,2.0266,2.0284,2.0252,2.0336,2.0338,2.0341,2.0362,2.0367,2.0371,0,0,0,0,0,2.0161,2.0187,2.0182,2.0187,2.0212,2.0234,2.0237,2.0235,2.0223,2.0236,2.024,2.0232,2.0279,2.0264,2.0269,2.0288,2.0335,2.0338,2.034,2.036,2.0366,2.0371,0,0,0,0,0,0,2.018,2.0188,2.0183,2.0213,2.0223,2.0231,2.0248,2.0241,2.0256,2.0253,2.0251,2.0254,2.0283,2.0288,2.0271,2.0323,2.0305,2.0309,2.0318,2.0323,2.0328,2.0326,2.0254,0,0,0,0,0,2.0188,2.0204,2.0211,2.0237,2.0242,2.0244,2.0254,2.0251,2.0262,2.0266,2.0272,2.0284,2.0301,2.0312,2.0329,2.0363,2.0365,2.0378,2.0383,2.0386,2.039,2.0409,2.0415,2.0351,2.0351,2.0351,0,0,2.0204,2.0211,2.0221,2.0241,2.0248,2.0266,2.0248,2.0267,2.0281,2.0269,2.0296,2.0301,2.0313,2.0344,2.0359,2.035,2.0408,2.039,2.0392,2.0394,2.0413,2.0419,2.0424,2.0353,2.0352,2.0352,0,0,2.0243,2.0249,2.0272,2.028,2.0291,2.0292,2.0298,2.0307,2.031,2.0336,2.0328,2.0345,2.0374,2.0384,2.0393,2.0436,2.0429,2.0441,2.0464,2.0483,2.0488,2.0493,2.0509,2.0514,2.0445,2.0445,2.0445,0,2.0262,2.0288,2.0284,2.0305,2.0314,2.0304,2.0327,2.0335,2.0352,2.0359,2.0349,2.0386,2.0394,2.0427,2.0438,2.0445,2.0452,2.044,2.0487,2.0492,2.0496,2.0512,2.0518,2.0446,2.0446,2.0446,2.0446,0,2.0311,2.0329,2.0346,2.0362,2.0373,2.0395,2.0396,2.0408,2.0405,2.0407,2.0435,2.0443,2.0462,2.0469,2.0467,2.0503,2.0497,2.0487,2.047,2.0504,2.0518,2.0524,2.0448,2.0448,2.0447,2.0447,0,0,2.0363,2.0376,2.0383,2.039,2.0402,2.0416,2.0438,2.0455,2.0466,2.0478,2.0497,2.0523,2.0514,2.0524,2.0522,2.0538,2.0573,2.0526,2.0527,2.0535,2.0615,2.0622,2.0629,2.0568,2.0569,2.057,2.0614,0,2.0403,2.044,2.0438,2.0473,2.0491,2.0481,2.0501,2.0511,2.0514,2.053,2.0534,2.0552,2.0538,2.0544,2.056,2.0565,2.0589,2.0562,2.0587,2.0588,2.0584,2.0636,2.0645,2.0685,2.0619,2.062,2.0621,0,2.0454,2.0468,2.0505,2.0515,2.0522,2.0539,2.0555,2.057,2.0582,2.0583,2.0594,2.059,2.0613,2.0595,2.0627,2.0609,2.0619,2.0623,2.0625,2.0627,2.0607,2.0641,2.0698,2.0704,2.063,2.0629,2.0628,0,2.0489,2.0516,2.0542,2.0549,2.0561,2.0573,2.0579,2.0589,2.06,2.0614,2.0622,2.0639,2.0648,2.0662,2.0663,2.0649,2.0696,2.0677,2.0698,2.0698,2.0709,2.0708,2.0769,2.0715,2.0714,2.0714,2.0714,0,2.0535,2.0558,2.0558,2.0574,2.06,2.0598,2.0624,2.0629,2.0638,2.0656,2.0649,2.0665,2.0665,2.0683,2.0683,2.0711,2.0715,2.0717,2.0717,2.0718,2.0718,2.0725,2.0723,2.0716,2.0716,2.0715,2.0715,0,2.0578,2.0579,2.0607,2.0616,2.0619,2.0638,2.0646,2.0662,2.0664,2.0687,2.0692,2.0696,2.0716,2.0718,2.0742,2.0742,2.0776,2.0772,2.0772,2.0771,2.0793,2.0791,2.086,2.0869,2.0809,2.0809,2.081,0,2.0607,2.0625,2.0636,2.0647,2.0653,2.0671,2.0682,2.068,2.0692,2.0707,2.0721,2.074,2.0755,2.0788,2.0794,2.0812,2.081,2.0833,2.0813,2.0813,2.0811,2.081,2.0812,2.0837,2.0838,2.0838,2.0839,0,2.0659,2.0659,2.0674,2.069,2.0703,2.0716,2.0727,2.0737,2.0737,2.0751,2.0771,2.0783,2.0807,2.0826,2.0844,2.0851,2.0845,2.0845,2.0851,2.0852,2.0851,2.0853,2.0783,2.0843,2.0843,2.0843,2.0842,2.0842,2.0697,2.0712,2.0723,2.074,2.0749,2.076,2.0775,2.078,2.0796,2.0815,2.0814,2.0836,2.0848,2.0871,2.088,2.0898,2.089,2.0899,2.0901,2.0903,2.0906,2.0848,2.0901,2.0901,2.0901,2.0901,2.0901,0,2.0749,2.0755,2.0771,2.0788,2.0802,2.0794,2.0807,2.082,2.0839,2.0851,2.0866,2.0889,2.0909,2.0916,2.0935,2.0948,2.0946,2.0953,2.0952,2.0954,2.0911,2.0904,2.0955,2.0954,2.0954,2.0954,2.0954,2.0954,2.0777,2.0804,2.0805,2.0835,2.0841,2.0863,2.0871,2.0882,2.0891,2.0917,2.0933,2.0937,2.0947,2.0967,2.0984,2.0986,2.0994,2.1002,2.1003,2.0963,2.0957,2.0952,2.0946,2.1004,2.1004,2.1044,2.1045,2.1045]},{"header":{"parameterUnit":"m.s-1","parameterCategory":1,"la1":30.2991,"la2":30.254,"lo1":-89.0895,"lo2":-89.0444,"dy":0.0017,"dx":0.0017,"nx":28,"ny":28,"refTime":"2023-07-19T21:00:00:Z","depth":0,"parameterNumber":3,"parameterNumberName":"V-component_of_WINDS"},"data":[0,0,0,0,0,0,0,0,0,0,0,0,0,0,0,0,0,0,0,0,0,0,0,0,0,0,0,0,0,0,0,0,0,0,0,0,0,0,0,0,0,0,0,0,0,0,0,0,0,0,0,0,0,0,0,0,0,0,1.1685,1.1685,0,1.169,1.169,1.169,1.1706,1.1706,1.1706,1.1707,1.1711,1.171,1.171,0,0,0,0,0,0,0,0,0,0,0,0,0,1.169,1.169,1.1685,1.1685,1.1685,1.169,1.169,1.169,1.1706,1.1706,1.1707,1.1707,1.1711,1.171,1.171,0,0,0,0,0,0,0,0,0,0,0,0,0,1.169,1.169,1.1685,1.1694,1.1695,1.169,1.169,1.169,1.1706,1.1706,1.1707,1.1707,1.1711,1.171,1.171,1.1697,0,0,1.1709,1.1709,0,0,0,0,0,0,0,0,1.169,1.169,1.1693,1.1693,1.1694,1.1698,1.1693,1.1692,1.1705,1.1701,1.1707,1.1707,1.1706,1.1706,1.1706,1.1697,1.1697,1.1709,1.1709,1.1709,1.1708,0,0,0,0,0,0,0,1.169,1.169,1.1687,1.1693,1.1694,1.1697,1.1698,1.1693,1.17,1.1702,1.1703,1.1703,1.1706,1.1706,1.1706,1.1697,1.1709,1.1709,1.1708,1.1708,1.1678,1.1677,0,0,0,0,0,0,1.1689,1.169,1.1687,1.1687,1.1694,1.1697,1.1697,1.1696,1.1701,1.1702,1.1703,1.1704,1.1706,1.1706,1.1706,1.169,1.1709,1.1708,1.1708,1.1678,1.1677,1.1677,0,0,0,0,0,0,1.1689,1.1689,1.1687,1.1689,1.1689,1.1696,1.1694,1.1696,1.1695,1.1701,1.1703,1.1701,1.1707,1.1706,1.1699,1.169,1.1708,1.1708,1.1679,1.1678,1.1677,1.1659,0,0,0,0,0,0,1.1689,1.1689,1.1684,1.1689,1.1689,1.168,1.1694,1.1695,1.1695,1.1696,1.17,1.1701,1.1707,1.1699,1.1699,1.169,1.1707,1.168,1.1679,1.1677,1.166,1.1657,1.1655,0,0,0,0,0,1.1689,1.1679,1.1684,1.1683,1.1683,1.1679,1.1679,1.1687,1.1694,1.1689,1.1693,1.1701,1.1692,1.1698,1.1698,1.1689,1.168,1.1679,1.1678,1.1661,1.1658,1.1655,0,0,0,0,0,0,1.1672,1.1679,1.1685,1.1675,1.1677,1.1682,1.1676,1.1683,1.1682,1.1683,1.1692,1.1693,1.1684,1.1686,1.1693,1.1676,1.1687,1.1686,1.1675,1.1672,1.167,1.1669,1.1707,0,0,0,0,0,1.1668,1.1664,1.1671,1.1661,1.1662,1.1669,1.1667,1.1673,1.1674,1.1675,1.1678,1.1679,1.1677,1.1675,1.1673,1.1661,1.1661,1.1655,1.1652,1.165,1.1648,1.1641,1.1638,1.1672,1.1672,1.1672,0,0,1.1658,1.1661,1.1658,1.1658,1.166,1.1656,1.1669,1.1664,1.1661,1.1674,1.1667,1.167,1.1671,1.1661,1.1657,1.1663,1.1639,1.1648,1.1646,1.1646,1.164,1.1636,1.1633,1.1671,1.1672,1.1672,0,0,1.1637,1.164,1.1632,1.1633,1.1636,1.164,1.1638,1.1643,1.1645,1.1638,1.1647,1.1644,1.1639,1.164,1.1639,1.1619,1.1626,1.1618,1.1604,1.1597,1.1595,1.1592,1.1584,1.1581,1.1617,1.1616,1.1616,0,1.1624,1.1618,1.1627,1.1622,1.1621,1.1633,1.1625,1.1626,1.1627,1.1626,1.1633,1.1627,1.1629,1.1619,1.1614,1.1613,1.1611,1.1617,1.1594,1.1592,1.159,1.1582,1.1579,1.1615,1.1616,1.1616,1.1616,0,1.1602,1.1598,1.1592,1.1593,1.1591,1.1585,1.1592,1.159,1.1595,1.1599,1.1592,1.1595,1.1593,1.1591,1.1597,1.1582,1.1585,1.1593,1.1604,1.1586,1.1578,1.1576,1.1614,1.1614,1.1615,1.1615,0,0,1.157,1.1576,1.1574,1.1574,1.1577,1.1574,1.1568,1.1567,1.1564,1.1565,1.1559,1.1555,1.1562,1.1561,1.1567,1.1561,1.1544,1.157,1.157,1.1564,1.1527,1.152,1.1517,1.1549,1.1549,1.1548,1.1526,0,1.155,1.1539,1.1547,1.1535,1.1531,1.1542,1.1537,1.1538,1.1542,1.1538,1.1542,1.1539,1.1549,1.1549,1.1544,1.1547,1.1536,1.1549,1.1543,1.1543,1.1541,1.1513,1.1506,1.1485,1.1524,1.1523,1.1523,0,1.1524,1.1524,1.1511,1.1515,1.1514,1.1509,1.1508,1.1505,1.1507,1.1509,1.1509,1.1516,1.151,1.1521,1.1512,1.1521,1.1519,1.152,1.152,1.1519,1.1531,1.151,1.1479,1.1475,1.1519,1.1519,1.1519,0,1.1501,1.1497,1.1489,1.149,1.1494,1.149,1.1492,1.1494,1.1492,1.1492,1.1491,1.1489,1.1488,1.1486,1.1493,1.1501,1.1483,1.1495,1.1484,1.1484,1.1479,1.1479,1.1446,1.148,1.148,1.148,1.148,0,1.1477,1.1469,1.1479,1.1474,1.1465,1.1474,1.1464,1.1467,1.1469,1.1464,1.1475,1.147,1.1479,1.1475,1.1481,1.1472,1.1471,1.1473,1.1474,1.1472,1.1471,1.147,1.1471,1.1479,1.1479,1.1479,1.1479,0,1.1449,1.1456,1.1447,1.1453,1.1454,1.1447,1.1451,1.1446,1.145,1.1444,1.1444,1.145,1.1446,1.1453,1.145,1.1453,1.1441,1.1445,1.144,1.1441,1.1429,1.143,1.1393,1.1389,1.1426,1.1426,1.1425,0,1.1432,1.1426,1.1431,1.1428,1.143,1.1426,1.1424,1.1433,1.1431,1.1432,1.1427,1.1424,1.1422,1.1415,1.1419,1.1417,1.142,1.1408,1.142,1.1417,1.1419,1.1419,1.1418,1.1405,1.1404,1.1404,1.1404,0,1.1402,1.1406,1.1403,1.1402,1.14,1.1399,1.1399,1.1397,1.1406,1.1403,1.1399,1.1398,1.1394,1.1391,1.139,1.1391,1.1398,1.14,1.1397,1.1394,1.1391,1.1391,1.1432,1.1401,1.1401,1.1401,1.1401,1.1401,1.1379,1.1374,1.1376,1.1373,1.1374,1.1373,1.1369,1.1373,1.137,1.1368,1.1373,1.1368,1.137,1.1368,1.1369,1.1365,1.137,1.1366,1.1365,1.1364,1.1362,1.1392,1.1365,1.1365,1.1365,1.1365,1.1365,0,1.1348,1.135,1.1347,1.1347,1.1344,1.1352,1.1353,1.135,1.1345,1.1346,1.1344,1.1339,1.1336,1.134,1.1337,1.1333,1.1336,1.1332,1.1332,1.1332,1.1357,1.136,1.1329,1.1329,1.1329,1.1329,1.1329,1.1329,1.1332,1.1323,1.1327,1.1319,1.1321,1.1316,1.1315,1.1315,1.1316,1.131,1.1308,1.131,1.1312,1.131,1.1307,1.1309,1.1307,1.1301,1.1303,1.1327,1.133,1.1333,1.1335,1.1301,1.13,1.1278,1.1277,1.1277]}]]